Regional Weather Roundup
Issued by NWS

Home | Current Version | Previous Version | Text Only | Print | Product List | Glossary On
Versions: 1 2 3 4 5 6 7 8 9 10 11 12 13 14 15 16 17 18 19 20 21 22 23 24 25 26 27 28 29 30 31 32 33 34 35 36 37 38 39 40 41 42 43 44 45 46 47 48 49 50
000
ASUS43 KBIS 270602
RWRND

NORTH DAKOTA REGIONAL WEATHER ROUNDUP
NATIONAL WEATHER SERVICE BISMARCK ND
100 AM CDT THU JUL 27 2017

NOTE: "FAIR" INDICATES FEW OR NO CLOUDS BELOW 12,000 FEET WITH NO
SIGNIFICANT WEATHER AND/OR OBSTRUCTIONS TO VISIBILITY.


NDZ001>003-009>011-017-270700-
NORTHWEST NORTH DAKOTA

CITY           SKY/WX    TMP DP  RH WIND       PRES   REMARKS
WILLISTON      MOCLDY    75  53  46 E9G20     30.11R
6HR MIN TEMP:  75; 6HR MAX TEMP:  91;

MINOT          MOCLDY    67  55  65 SE6       30.12S
MINOT AFB      MOCLDY    63  55  75 S5        30.11R
$$

NDZ018>021-031>035-040>046-270700-
SOUTHWEST NORTH DAKOTA

CITY           SKY/WX    TMP DP  RH WIND       PRES   REMARKS
BISMARCK       CLEAR     64  56  75 E6        30.15R
6HR MIN TEMP:  64; 6HR MAX TEMP:  85;

DICKINSON      CLEAR     62  51  67 E8        30.12S
GARRISON         N/A     66  57  72 SE6       30.13S
6HR MIN TEMP:  66; 6HR MAX TEMP:  82;

HETTINGER ARPT CLEAR     70  53  54 SE9       30.14S
$$

NDZ004>008-012>016-024-026-027-054-270700-
NORTHEAST NORTH DAKOTA

CITY           SKY/WX    TMP DP  RH WIND       PRES   REMARKS
GRAND FORKS    CLEAR     61  59  93 W7        30.09S
GRND FRKS AFB  CLEAR     58  56  95 W3        30.11R
DEVILS LAKE    CLEAR     61  59  93 CALM      30.14S
$$

NDZ022-023-025-028>030-036>039-047>053-270700-
SOUTHEAST NORTH DAKOTA

CITY           SKY/WX    TMP DP  RH WIND       PRES   REMARKS
FARGO          CLEAR     62  60  93 CALM      30.09S
6HR MIN TEMP:  59; 6HR MAX TEMP:  81;

JAMESTOWN      CLEAR     61  57  87 CALM      30.13R
$$





USA.gov is the U.S. government's official web portal to all federal, state and local government web resources and services.